Tracking 34352 objects as of 8-Jun-2026
HD Live streaming from Space Station
objects crossing your sky now

STARLINK-34412

Track STARLINK-34412 now!
10-day predictions
STARLINK-34412 is classified as:


NORAD ID: 66132
Int'l Code: 2025-237U
Perigee: 481.3 km
Apogee: 483.4 km
Inclination: 53.2 °
Period: 94.1 minutes
Semi major axis: 6853 km
RCS: Unknown
Launch date: October 22, 2025
Source: United States (US)
Launch site: AIR FORCE WESTERN TEST RANGE (AFWTR)
Your satellite tracking list
Your tracking list is empty




NASA's NSSDC Master Catalog

Two Line Element Set (TLE):
1 66132U 25237U   26158.77239523  .00024389  00000-0  83292-3 0  9990
2 66132  53.1622 341.1225 0001525  96.0357 264.0818 15.30197942 36313
Source of the keplerian elements: AFSPC